Regional Weather Roundup
Issued by NWS Little Rock, AR

Home | Current Version | Previous Version | Text Only | Print | Product List | Glossary Off
Versions: 1 2 3 4 5 6 7 8 9 10 11 12 13 14 15 16 17 18 19 20 21 22 23 24 25 26 27 28 29 30 31 32 33 34 35 36 37 38 39 40 41 42 43 44 45 46 47 48 49 50

000
ASUS44 KLZK 290305
RWRLZK

WEATHER ROUNDUP FOR ARKANSAS
NATIONAL WEATHER SERVICE LITTLE ROCK AR
900 PM CST FRI NOV 28 2014

NOTE: "FAIR" INDICATES FEW OR NO CLOUDS BELOW 12,000 FEET WITH NO
SIGNIFICANT WEATHER AND/OR OBSTRUCTIONS TO VISIBILITY.

ARZ001-003-010-029-290400-
NORTHWEST ARKANSAS

CITY           SKY/WX    TMP DP  RH WIND       PRES   REMARKS
FAYETTEVILLE   MOCLDY    52  41  66 S12       29.95S
FORT SMITH     CLEAR     47  38  71 N5        29.99S
HARRISON       PTCLDY    51  39  63 S8        29.95R
BENTONVILLE    MOCLDY    54  39  58 S13G20    29.94F
ROGERS         MOCLDY    52  40  63 S14       29.94S
SILOAM SPGS    MOCLDY    54  37  54 S15G23    29.95S
HIGHFILL       MOCLDY    54  41  61 S15       29.93S
SPRINGDALE     CLEAR     54  41  62 S8        29.97R
$$

ARZ004-005-016-290400-
NORTH CENTRAL ARKANSAS

CITY           SKY/WX    TMP DP  RH WIND       PRES   REMARKS
BATESVILLE     CLEAR     48  34  57 S12G18    30.03S
FLIPPIN        CLEAR     52  34  50 S5        29.96S
MTN HOME       PTCLDY    49  36  61 S8        29.96S
$$

ARZ040-041-290400-
WEST CENTRAL ARKANSAS

CITY           SKY/WX    TMP DP  RH WIND       PRES   REMARKS
MENA           PTCLDY    59  46  63 S7        30.03S
MOUNT IDA      PTCLDY    55  41  59 CALM      30.01F
$$

ARZ009-017-025-026-028-290400-
NORTHEAST ARKANSAS

CITY           SKY/WX    TMP DP  RH WIND       PRES   REMARKS
CORNING        FAIR      45  34  65 S14       30.03F
JONESBORO      CLEAR     43  34  70 S12       30.07S
NEWPORT        CLEAR     44  37  76 S13       30.06F
WALNUT RIDGE   CLEAR     43  34  70 S13       30.03F
BLYTHEVILLE    CLEAR     46  30  53 S14       30.06F
$$

ARZ022-023-033-042-044-290400-
CENTRAL ARKANSAS

CITY           SKY/WX    TMP DP  RH WIND       PRES   REMARKS
LITTLE ROCK    PTCLDY    49  35  58 S10       30.07F
N LITTLE ROCK  PTCLDY    49  39  66 S13G20    30.07F
JACKSONVILLE   CLEAR     50  36  59 S7        30.06F
SEARCY         CLEAR     46  38  73 S7        30.08F
HOT SPRINGS    MOCLDY    55  38  52 S9        30.07F
RUSSELLVILLE   CLEAR     41  37  86 CALM      30.02F
CLINTON        FAIR      39  36  87 CALM      30.05F
$$

ARZ036-290400-
EAST ARKANSAS

CITY           SKY/WX    TMP DP  RH WIND       PRES   REMARKS
WEST MEMPHIS   CLEAR     44  30  57 S12       30.09F
$$

ARZ050-053-066-070-073-290400-
SOUTHWEST ARKANSAS

CITY           SKY/WX    TMP DP  RH WIND       PRES   REMARKS
ARKADELPHIA    FAIR      45  40  82 CALM      30.09F
CAMDEN         CLEAR     46  36  66 MISG      30.11S
TEXARKANA      CLEAR     54  45  71 S12       30.06F
EL DORADO      CLEAR     50  39  66 S7        30.11F
DE QUEEN       CLOUDY    50  44  80 E3        30.03F
$$

ARZ056-057-069-290400-
SOUTHEAST ARKANSAS

CITY           SKY/WX    TMP DP  RH WIND       PRES   REMARKS
PINE BLUFF     CLEAR     47  36  65 S12       30.11F
STUTTGART      CLEAR     48  36  61 S14       30.10F
MONTICELLO     CLEAR     48  36  63 S7        30.13F

$$





USA.gov is the U.S. government's official web portal to all federal, state and local government web resources and services.